Terug naar catalogus

IRIDIUM 33 DEB

ActiefPO
NORAD 35628·DEBRIS·🇺🇸 United States

Gelanceerd Sep 14, 1997 vanaf Baikonur Cosmodrome

Loading…

Volgende Passages (komende 24 uur)

TLE

VersSource: Space-Track

Epoch: Sep 13, 2026, 16:55 UTC

1 35628U 97051RA  26256.70508696  .00004675  00000-0  75314-3 0  9993
2 35628  86.3513 245.9820 0014122  99.2062 261.0752 14.71243626904855

Volg IRIDIUM 33 DEB in realtime met AllMySat

Download on the App Store